shen-yang , China , ASIA

  • Thursday
    January 18

      Sunny

      5 °F

      Southwest

       

  • Friday
    January 19

    Sunny  Sunny

    39 °F  1 °F

    Southwest  No wind

        

  • Saturday
    January 20

    Sunny  Sunny

    21 °F  -2 °F

    No wind  North

        

  • Sunday
    January 21

    Cloudy  Cloudy

    18 °F  -4 °F

    North  North

        

  • Monday
    January 22

    Cloudy  Sunny

    10 °F  -11 °F

    North  North

    3~4L    

  • Tuesday
    January 23

    Sunny  Sunny

    5 °F  -13 °F

    Northwest  Northwest

        

  • Wednesday
    January 24

    Sunny  Sunny

    5 °F  -11 °F

    Northwest  Northwest

        

Date   Weather Temperature Humidity Total_rain Visibility Wind
23:00 Sunny 14°F 73.1% 0mm 12km Southwest  3.5m/s
02:00 Sunny 12°F 74.9% 0mm 8km Southwest  4.0m/s
05:00 Sunny 9°F 76.7% 0mm 12km Southwest  3.3m/s
08:00 Sunny 5°F 79.3% 0mm 4km Southwest  2.3m/s
11:00 Sunny 31°F 62.6% 0mm 12km Southwest  1.7m/s
14:00 Sunny 39°F 55.4% 0mm 12km Northwest  2.1m/s
17:00 Sunny 30°F 66.5% 0mm 12km Northwest  2.2m/s
20:00 Sunny 23°F 49.2% 0mm 12km Northwest  2.5m/s
23:00 Sunny 14°F 73.8% 0mm 12km Northeast  2.1m/s
02:00 Sunny 11°F 73.2% 0mm 8km Northeast  2.0m/s
05:00 Sunny 6°F 72.5% 0mm 8km Northeast  2.8m/s
08:00 Sunny 2°F 65.3% 0mm 4km Northeast  2.0m/s
11:00 Sunny 14°F 58.1% 0mm 12km Northwest  1.8m/s
14:00 Sunny 21°F 52.6% 0mm 12km Northwest  2.8m/s
17:00 Sunny 17°F 49.8% 0mm 12km Northwest  1.9m/s
20:00 Sunny 10°F 47.1% 0mm 8km Northeast  1.8m/s
23:00 Sunny 4°F 73.8% 0mm 8km Northeast  1.8m/s
02:00 Sunny 1°F 74.3% 0mm 8km Northeast  1.7m/s
05:00 Sunny -2°F 74.9% 0mm 4km Northeast  2.4m/s
08:00 Sunny 1°F 76.8% 0mm 4km Northeast  2.2m/s
11:00 Cloudy 15°F 60.9% 0mm 4km Northeast  1.6m/s
14:00 Cloudy 17°F 64.5% 0mm 8km Northeast  2.0m/s
17:00 Cloudy 16°F 59.4% 0mm 8km Northeast  3.2m/s
20:00 Cloudy 13°F 56.2% 0mm 4km Northeast  3.3m/s
23:00 Cloudy 9°F 75.4% 0mm 4km Northeast  3.1m/s
02:00 Cloudy 6°F 73.3% 0mm 8km Northeast  3.5m/s
05:00 Cloudy 3°F 73% 0mm 8km Northeast  3.4m/s
08:00 Cloudy -4°F 67.6% 0mm 8km Northeast  2.4m/s
11:00 Cloudy 4°F 62.3% 0mm 4km Northwest  2.8m/s
14:00 Cloudy 10°F 57.9% 0mm 8km Northwest  3.0m/s
17:00 Cloudy 6°F 53.2% 0mm 12km Northwest  2.2m/s
20:00 Cloudy 1°F 49.5% 0mm 12km Northwest  2.0m/s
23:00 Sunny -7°F 66.1% 0mm 12km Northwest  1.9m/s
02:00 Sunny -8°F 64.4% 0mm 12km Northwest  2.5m/s
05:00 Sunny -11°F 64.1% 0mm 12km Northwest  2.3m/s
08:00 Sunny -10°F 63.4% 0mm 8km Northwest  2.2m/s
11:00 Sunny 0°F 48.5% 0mm 12km Northwest  4.6m/s
14:00 Sunny 5°F 48.1% 0mm 12km Northwest  5.0m/s
17:00 Sunny 2°F 47.6% 0mm 12km Northwest  3.6m/s
20:00 Sunny 0°F 41.8% 0mm 4km Northwest  2.6m/s
23:00 Sunny -12°F 63.7% 0mm 12km Northwest  3.8m/s
02:00 Sunny -12°F 80.6% 0mm 4km Northwest  2.7m/s
05:00 Sunny -13°F 68.7% 0mm 12km Northwest  2.9m/s
08:00 Sunny -13°F 65.5% 0mm 4km Northwest  2.1m/s
11:00 Sunny -1°F 62.2% 0mm 12km Northwest  3.6m/s
14:00 Sunny 5°F 61.5% 0mm 12km Northwest  3.0m/s
17:00 Sunny 4°F 60.8% 0mm 4km Northwest  2.7m/s
20:00 Sunny -4°F 50.3% 0mm 8km Southwest  2.7m/s
23:00 Sunny -5°F 60.3% 0mm 12km Northwest  3.6m/s
02:00 Sunny -8°F 76.6% 0mm 12km Northwest  2.4m/s
05:00 Sunny -11°F 65.6% 0mm 4km Northwest  4.6m/s